Overview Statistics Trail Chart Weather Telemetry Raw packets
 

This is the latest recevied weather packets stored in our database for station/object KO4LCK. If no packets are shown the sender has not sent any weather packets the latest 10 day(s).

<< 43 44 45 46 47 48 49 >>
Time Temp. Humidity Pressure Rain* Wind** Luminosity Snow
1788354698 26.67° C 80% 1021.5 hPa 0 mm - 209 W/m² -
1788354394 26.11° C 82% 1021.6 hPa 0 mm - 195 W/m² -
1788354089 25.56° C 83% 1021.3 hPa 0 mm - 182 W/m² -
1788353785 25.56° C 85% 1021.1 hPa 0 mm - 169 W/m² -
1788353480 25° C 87% 1021.3 hPa 0 mm - 156 W/m² -
1788353177 23.89° C 90% 1021.3 hPa 0 mm - 122 W/m² -
1788352877 23.89° C 91% 1021 hPa 0 mm - 104 W/m² -
1788352573 23.33° C 93% 1020.9 hPa 0 mm - 53 W/m² -
1788352268 22.78° C 93% 1021 hPa 0 mm - 49 W/m² -
1788351967 22.78° C 94% 1021.3 hPa 0 mm - 46 W/m² -
1788351663 22.78° C 94% 1021.1 hPa 0 mm - 43 W/m² -
1788351362 22.22° C 95% 1021.3 hPa 0 mm - 40 W/m² -
1788351057 22.22° C 95% 1021 hPa 0 mm - 37 W/m² -
1788350753 21.67° C 95% 1021.1 hPa 0 mm - 34 W/m² -
1788350475 21.67° C 95% 1020.9 hPa 0 mm - 30 W/m² -
1788350144 21.67° C 95% 1021 hPa 0 mm - 27 W/m² -
1788349841 21.67° C 96% 1021 hPa 0 mm - 24 W/m² -
1788349537 21.67° C 96% 1020.8 hPa 0 mm - 20 W/m² -
1788349236 21.11° C 96% 1020.7 hPa 0 mm - 17 W/m² -
1788348932 21.11° C 96% 1020.7 hPa 0 mm - 13 W/m² -
1788348627 21.11° C 96% 1020.8 hPa 0 mm - 10 W/m² -
1788348322 21.11° C 96% 1020.5 hPa 0 mm - 7 W/m² -
1788348019 21.11° C 95% 1020.6 hPa 0 mm - 5 W/m² -
1788347715 21.11° C 95% 1020.5 hPa 0 mm - 3 W/m² -
1788347410 21.11° C 95% 1020.5 hPa 0 mm - 1 W/m² -

* Rain latest hour (hover to see other rain measurements)
** Current wind speed in m/s (hover to see current wind gust speed)